Flag for Germany Weather past 2 weeks in Ettlingen, Baden-Württemberg, Germany

Now
66 °F

Sunny.


Feels Like: 66 °F
Forecast: 46 / 66 °F
Wind: 5 mph from West

Location: Karlsruhe - Baden Wurttemberg

Current Time: Sep 4, 2015 at 5:33:05 PM

Latest Report: Sep 4, 2015 at 4:50 PM


Visibility: 10 mi

Pressure: 30.01 "Hg

Humidity: 37%

Dew point: 39 °F

Location of EttlingenLocation

Historic Weather in Ettlingen — Graph

°F

Ettlingen temperature yesterday

Maximum temperature yesterday: 70 °F (at 12:50 PM)
Minimum temperature yesterday: 54 °F (at 10:50 PM)
Average temperature yesterday: 63 °F

Past Weeks' High & Low Weather Summary

 TemperatureHumidityPressure
High93 °F (Aug 30, 4:20 PM)94% (Aug 21, 4:50 AM)30.24 "Hg (Aug 21, 4:50 AM)
Low50 °F (Aug 26, 5:50 AM)19% (Aug 31, 3:20 PM)29.68 "Hg (Aug 24, 7:20 AM)
Average70 °F60%29.99 "Hg
* Reported Aug 20 4:20 PM — Sep 4 4:20 PM, Ettlingen, Weather by CustomWeather, © 2015

Note: Actual official high and low records may vary slightly from our data, if they occured in-between our weather recording intervals... More about our weather records

Advertising

Ettlingen weather history for previous 24 hours

 ConditionsComfort  
Time TempWeatherWind HumidityBarometerVisibility
4:20 PM
Fri, Sep 4
66 °FSunny.6 mph35%30.01 "Hg10 mi
3:50 PM66 °FPassing clouds.6 mph37%30.01 "HgN/A
3:20 PM68 °FPassing clouds.7 mph33%30.01 "HgN/A
2:50 PM68 °FPassing clouds.7 mph33%30.01 "HgN/A
2:20 PM66 °FPassing clouds.7 mph40%30.04 "HgN/A
1:50 PM64 °FPassing clouds.5 mph46%30.04 "HgN/A
1:20 PM64 °FPassing clouds.7 mph46%30.04 "HgN/A
12:50 PM64 °FPassing clouds.8 mph46%30.04 "HgN/A
12:20 PM66 °FPassing clouds.7 mph46%30.04 "HgN/A
11:50 AM64 °FPassing clouds.6 mph49%30.04 "HgN/A
11:20 AM63 °FPassing clouds.7 mph52%30.04 "HgN/A
10:50 AM63 °FPassing clouds.7 mph52%30.04 "HgN/A
10:20 AM61 °FPassing clouds.5 mph59%30.04 "HgN/A
9:50 AM59 °FPassing clouds.5 mph59%30.04 "HgN/A
9:20 AM57 °FPassing clouds.6 mph67%30.04 "HgN/A
8:50 AM55 °FSunny.3 mph67%30.04 "Hg10 mi
8:20 AM54 °FSunny.2 mph77%30.01 "Hg10 mi
7:50 AM50 °FSunny.1 mph82%30.01 "Hg10 mi
7:20 AM50 °FClear.2 mph82%30.01 "Hg10 mi
6:50 AM50 °FClear.1 mph82%30.01 "Hg10 mi
6:20 AM50 °FClear.2 mph82%30.01 "Hg10 mi
5:50 AM52 °FClear.3 mph82%30.01 "Hg10 mi
5:20 AM54 °FClear.2 mph72%30.01 "Hg10 mi
4:50 AM52 °FClear.3 mph82%30.01 "Hg10 mi
4:20 AM54 °FClear.2 mph77%30.01 "Hg10 mi
1:50 AM54 °FClear.2 mph77%30.01 "Hg10 mi
1:20 AM54 °FClear.1 mph77%30.01 "Hg10 mi
12:50 AM54 °FClear.2 mph77%30.01 "Hg10 mi
12:20 AM54 °FClear.2 mph77%30.01 "Hg10 mi
11:20 PM
Thu, Sep 3
55 °FClear.3 mph72%29.98 "Hg10 mi
10:50 PM54 °FPassing clouds.5 mph72%29.98 "HgN/A
10:20 PM57 °FClear.3 mph63%29.98 "Hg10 mi
9:50 PM61 °FClear.3 mph55%29.98 "Hg10 mi
9:20 PM63 °FClear.2 mph56%29.98 "Hg10 mi
8:50 PM63 °FSunny.2 mph52%29.98 "Hg10 mi
8:20 PM64 °FSunny.3 mph49%29.95 "Hg10 mi
7:50 PM64 °FSunny.2 mph49%29.95 "Hg10 mi
7:20 PM66 °FSunny.6 mph43%29.95 "Hg10 mi
6:50 PM68 °FSunny.7 mph40%29.95 "Hg10 mi
6:20 PM68 °FSunny.6 mph40%29.95 "Hg10 mi
5:20 PM68 °FBroken clouds.8 mph40%29.95 "HgN/A
Weather by CustomWeather, © 2015

See weather overviewHow to use our weather pages